COSMOS 1275 DEB, 13815

Orbit data source: Space-Track

COSMOS 1275 DEB, 13815 is space debris in LEO originally from a launch on Thu, 04 Jun 1981 UTC launched from the Plesetsk Missile And Space Complex (PKMTR). Debris objects in space refer to the collection of defunct objects orbiting the Earth. Examples of debris include non-operational satellites, rocket bodies, and fragments generated from explosions, collisions, or faulty payload assembly.

Loading next visibility...
Identifier
13815, 1981-053HK
Orbit
LEO
Country
Flag of CISCIS
Related business
Manufacturer
Unknown
Mission
Spacecraft
Bus & Motor
Unknown
Mass
Unknown
Launch date (UTC)
1981-06-04 (45 years ago)
Launch vehicle
Unknown
Launch site
Plesetsk Missile And Space Complex (PKMTR)
Object type
Payload
Rocket body
Debris
Shape & HBR
Unknown shape, 0.1 m
Radar Cross Section
Medium (>0.1 m² and <1 m²)

Expand to show TLE details & history
Last TLE update: 10 hours ago

TLE from 10 hours ago
0 COSMOS 1275 DEB
1 13815U 81053HK  26236.29332854  .00001210  00000-0  10552-2 0  9999
2 13815  83.0256 182.5502 0105798 236.8927 277.2302 13.82646927178898
Epoch: 2026-08-24T07:02Z
TLE epoch observation values (Epoch: 2026-08-24T07:02:23.585Z)
Latitude
26.90201°
Longitude
-79.16508°
Altitude
948.845 km
Speed
7.384 km/s
True Right ascension
23h 56m 02s
True Declination
26° 46' 02"
Sunlit
Object was in full shadow at epoch
Visualization orbit readout
Latitude
Unknown
Longitude
Unknown
Altitude
Unknown
Speed
Unknown
Apparent Right ascension
Unknown
Apparent Declination
Unknown
Sunlit
N/A
Visualization observer readout
Local Sidereal Time
07:45:32
Azimuth
Unknown
Elevation
Unknown
Doppler factor
Unknown
Orbital elements
Apogee altitude
1,029.196 km
Perigee altitude
874.1 km
Semi-major axis
7,329.785 km
Eccentricity
0.01058
Inclination
83.0256°
RAAN
182.5502°
Arg. of periapsis
236.8927°
True anomaly
276.02557°
Mean anomaly
277.2302°
Eccentric anomaly
276.62807°
Mean motion
3.45865 °/min
Orbital period
104.09 mins
BSTAR
0.0010552
Loading maneuver chart data...
Computing Atmospheric mass density...
Loading historical data...
Loading historical data...
Loading historical data...
Loading historical data...
Loading historical data...
Loading historical data...
Loading historical data...

Documentation

Showing up to 5 results
|